FENGYUN 1C DEB, 30151

Orbit data source: Space-Track

FENGYUN 1C DEB, 30151 is space debris in SSO originally from a launch on Mon, 10 May 1999 UTC launched from the Taiyaun Space Center, China (TSC). Fengyun 1C debris stems from the Chinese weather satellite Fengyun-1C, which was intentionally destroyed by a Chinese anti-satellite missile in 2007. This event dramatically increased the amount of space debris, with thousands of trackable fragments posing hazards to satellites and human spaceflight. The Fengyun 1C debris cloud has become a focal point in discussions about space sustainability and the need for international regulations to prevent the creation of new debris.

Loading next visibility...
Identifier
30151, 1999-025TG
Orbit
SSO
Country
Flag of CNCN / PRC
Related business
Manufacturer
Unknown
Mission
Spacecraft
Bus & Motor
Unknown
Mass
Unknown
Launch date (UTC)
1999-05-10 (27 years ago)
Launch vehicle
Unknown
Launch site
Taiyaun Space Center, China (TSC)
Object type
Payload
Rocket body
Debris
Shape & HBR
Unknown shape, 0.1 m
Radar Cross Section
Medium (>0.1 m² and <1 m²)

Expand to show TLE details & history
Last TLE update: 15 hours ago

TLE from 15 hours ago
0 FENGYUN 1C DEB
1 30151U 99025TG  26253.96893894  .00000413  00000-0  36559-3 0  9998
2 30151  99.0649 257.7069 0161056 266.6869 120.8951 13.84910161990139
Epoch: 2026-09-10T23:15Z
TLE epoch observation values (Epoch: 2026-09-10T23:15:16.324Z)
Latitude
28.79622°
Longitude
-86.11524°
Altitude
1,011.999 km
Speed
7.317 km/s
True Right ascension
16h 50m 48s
True Declination
28° 39' 23"
Sunlit
Object was in daylight at epoch
Visualization orbit readout
Latitude
Unknown
Longitude
Unknown
Altitude
Unknown
Speed
Unknown
Apparent Right ascension
Unknown
Apparent Declination
Unknown
Sunlit
N/A
Visualization observer readout
Local Sidereal Time
06:16:12
Azimuth
Unknown
Elevation
Unknown
Doppler factor
Unknown
Orbital elements
Apogee altitude
1,061.667 km
Perigee altitude
825.821 km
Semi-major axis
7,321.881 km
Eccentricity
0.01611
Inclination
99.0649°
RAAN
257.7069°
Arg. of periapsis
266.6869°
True anomaly
122.46239°
Mean anomaly
120.8951°
Eccentric anomaly
121.68038°
Mean motion
3.46425 °/min
Orbital period
103.92 mins
BSTAR
0.00036559
Loading maneuver chart data...
Computing Atmospheric mass density...
Loading historical data...
Loading historical data...
Loading historical data...
Loading historical data...
Loading historical data...
Loading historical data...
Loading historical data...

Documentation

Showing up to 5 results
|